Regional Weather Roundup
Issued by NWS Newport/Morehead, NC

Current Version | Previous Version | Text Only | Print | Product List | Glossary On
Versions: 1 2 3 4 5 6 7 8 9 10 11 12 13 14 15 16 17 18 19 20 21 22 23 24 25 26 27 28 29 30 31 32 33 34 35 36 37 38 39 40 41 42 43 44 45 46 47 48 49 50
000
ASUS42 KMHX 120925
RWRMHX
WEATHER ROUNDUP FOR EASTERN NORTH CAROLINA
NATIONAL WEATHER SERVICE NEWPORT/MOREHEAD CITY NC
400 AM EST FRI FEB 12 2016

NOTE: "FAIR" INDICATES FEW OR NO CLOUDS BELOW 12,000 FEET
WITH NO SIGNIFICANT WEATHER AND/OR OBSTRUCTIONS TO VISIBILITY

NCZ015>017-031-032-045>047-102-103-121000-
NORTH COAST

CITY           SKY/WX    TMP DP  RH WIND       PRES   REMARKS
EDENTON        PTCLDY    25  15  64 N5        30.33S
ELIZABETH CITY CLOUDY    27  14  58 N10       30.33S WCI  17
KITTY HAWK     SUNNY     31  17  56 CALM      30.30S
MANTEO         CLEAR     31  19  62 N6        30.31S

$$

NCZ045>047-081-094-103-104-121000-
CENTRAL COAST

CITY           SKY/WX    TMP DP  RH WIND       PRES   REMARKS
FRISCO         CLEAR     34  12  40 NE5       30.30F
SWANQUARTER      N/A     27 N/A N/A N2        30.27S

$$

NCZ095-097-098-100-101-121000-
SOUTHERN COAST

CITY           SKY/WX    TMP DP  RH WIND       PRES   REMARKS
BEAUFORT       MOCLDY    31  19  61 NE7       30.28F
CEDAR ISLAND     N/A     36 N/A N/A N14       30.33S
JACKSONVILLE   MOCLDY    30  15  53 VRB5      30.27F
PINEY ISLAND   SUNNY    N/A N/A N/A NE9       30.29F
WILMINGTON     CLOUDY    34  22  61 NE10      30.25S


$$

NCZ011>013-027>030-043-044-078>080-089-090>093-098-121000-
COASTAL PLAIN

CITY           SKY/WX    TMP DP  RH WIND       PRES   REMARKS
AHOSKIE        CLEAR     23   9  53 N3        30.33F
CLINTON        CLEAR     30  13  49 NE5       30.28F
ELIZABETHTOWN  CLEAR     29  19  65 CALM      30.25F
GOLDSBORO      CLEAR     28   9  43 NE7       30.27F
GREENVILLE     PTCLDY    27  18  69 NE6       30.32S
HAVELOCK       PTCLDY    30  18  60 NE10      30.29F
KENANSVILLE    CLEAR     27  16  63 CALM      30.28F
KINSTON        CLEAR     27  17  65 NE5       30.30F
NEW BERN       CLEAR     27  14  58 NE6       30.31S
RICHLANDS      CLEAR     27  14  59 N8        30.28S
ROCKY MOUNT    CLOUDY    27   8  44 NE6       30.32S
WASHINGTON     PTCLDY    26  13  58 NE8       30.31F
WHITEVILLE     MOCLDY    33  22  66 NE6       30.23F

$$

AMZ130-135-150-152-154-156-158-170-250-252-270-ANZ085-086-088-633-658-670-121000-
MARINE OBSERVATIONS

STATION/POSITION TIME  TEMP    WIND        PRES    WAVE   SWELL
                       AIR SEA DIR/SP/G            HT/PER HT/PER
                 (UTC) (F)     (DEG/KT/KT) (MB)    (FT/S) (FT/S)
CHESAPEAKE LIGHT 0900   27     360/ 14/ 16 1027.4
64 E VA BEACH    0850   31 49  350/ 14/ 17 1026.0    5/ 7   3/ 7
DUCK             0900   32      10/  8/ 13 1026.0
2 E DUCK         0811      43                N/A     2/ 3
OREGON INLET     0900   31 40  350/  3/  6 1026.2
13E OREGON INLT  0900      45                N/A     3/ 6
HATTERAS CG      0900   36 45   20/ 11/ 13 1025.2
DIAMOND BUOY     0850   40 70   10/ 10/ 14 1025.8    3/ 8   2/ 8
CAPE LOOKOUT     NOT AVBL
BEAUFORT LAB     0900   32 45   20/  7/  8 1024.1
30 SE NEW RVR IN 0908   45 59              1023.7
30 SE NEW RVR IN 0855      59                N/A     2/ 7
27 SE WRIGHTSVLE 0908   48 62   80/ 10/ 16 1021.7
5 SE WRIGHTSVLE  0808   46 50   60/ 10/ 12 1024.4
225 S CAPE HAT   0850   56 68   20/  8/ 10   N/A     6/ 7   5/ 7
41 SE CHARLESTON 0850   61 69  220/  8/ 16 1021.1    1/ 4   2/ 4

$$



USA.gov is the U.S. government's official web portal to all federal, state and local government web resources and services.